This is the latest recevied weather packets stored in our database for station/object DG1ABU-11. If no packets are shown the sender has not sent any weather packets the latest 1 day(s).
| Time | Temp. | Humidity | Pressure | Rain* | Wind** | Luminosity | Snow |
|---|---|---|---|---|---|---|---|
| 1777788143 | 14.44° C | 42% | 1013.6 hPa | - | - | - | - |
| 1777787243 | 13.89° C | 43% | 1013.6 hPa | - | - | - | - |
| 1777786343 | 13.33° C | 44% | 1013.8 hPa | - | - | - | - |
| 1777785443 | 13.33° C | 44% | 1013.8 hPa | - | - | - | - |
| 1777784543 | 13.33° C | 45% | 1013.9 hPa | - | - | - | - |
| 1777783643 | 13.33° C | 44% | 1014 hPa | - | - | - | - |
| 1777782743 | 13.33° C | 44% | 1014 hPa | - | - | - | - |
| 1777781842 | 13.33° C | 44% | 1014.1 hPa | - | - | - | - |
| 1777780942 | 13.33° C | 43% | 1014.1 hPa | - | - | - | - |
| 1777780042 | 13.33° C | 43% | 1014.1 hPa | - | - | - | - |
| 1777779142 | 13.89° C | 43% | 1014.1 hPa | - | - | - | - |
| 1777778242 | 14.44° C | 42% | 1014 hPa | - | - | - | - |
| 1777777342 | 14.44° C | 41% | 1014.1 hPa | - | - | - | - |
| 1777776442 | 14.44° C | 41% | 1014.2 hPa | - | - | - | - |
| 1777775542 | 15° C | 41% | 1014.3 hPa | - | - | - | - |
| 1777774642 | 15° C | 41% | 1014.3 hPa | - | - | - | - |
| 1777773742 | 15.56° C | 40% | 1014.4 hPa | - | - | - | - |
| 1777772842 | 15.56° C | 40% | 1014.3 hPa | - | - | - | - |
| 1777771942 | 15.56° C | 40% | 1014.5 hPa | - | - | - | - |
| 1777771042 | 16.11° C | 38% | 1014.6 hPa | - | - | - | - |
| 1777770142 | 15.56° C | 38% | 1014.7 hPa | - | - | - | - |
| 1777769242 | 16.11° C | 37% | 1014.9 hPa | - | - | - | - |
| 1777768342 | 16.67° C | 36% | 1014.7 hPa | - | - | - | - |
| 1777767442 | 16.67° C | 36% | 1014.7 hPa | - | - | - | - |
| 1777766541 | 17.22° C | 35% | 1014.8 hPa | - | - | - | - |
* Rain since midnight (hover to see other rain measurements)
** Current wind speed in m/s (hover to see current wind gust speed)